Waarnemingen

Advertentie
Mijn weer
Aultbea, Groot Brittannië (3034): temperatuur & dauwpunt: 15.01.2021 12:00:00 - 21.01.2021 12:00:00 (GMT)Aultbea, Groot Brittannië (3034): temperatuur -20cm & temperatuur -100cm: 15.01.2021 12:00:00 - 21.01.2021 12:00:00 (GMT)Aultbea, Groot Brittannië (3034): windsnelheid & windstoten: 15.01.2021 12:00:00 - 21.01.2021 12:00:00 (GMT)Aultbea, Groot Brittannië (3034): windrichting: 15.01.2021 12:00:00 - 21.01.2021 12:00:00 (GMT)Aultbea, Groot Brittannië (3034): luchtdruk: 15.01.2021 12:00:00 - 21.01.2021 12:00:00 (GMT)Aultbea, Groot Brittannië (3034): zicht: 15.01.2021 12:00:00 - 21.01.2021 12:00:00 (GMT)Aultbea, Groot Brittannië (3034): neerslag: 15.01.2021 12:00:00 - 21.01.2021 12:00:00 (GMT)
Datum & Tijd tt [°C] td [°C] tt -20cm [°C] tt -100cm [°C] ff [km/u] ff [kn] fx [km/u] fx [kn] dd ppp [hPa] vv [km] rr [mm]
21.01.2021 12:00:00 - - - - - - - - - - - -
21.01.2021 11:00:00 4,2 0,6 - - 28 15 52 28 N 973,8 19 0,0
21.01.2021 10:00:00 5,7 0,9 - - 26 14 55 30 N 973,1 18 0,0
21.01.2021 09:00:00 4,9 0,9 3,0 5,2 22 12 61 33 N 973,0 19 0,0
21.01.2021 08:00:00 4,8 0,8 - - 29 16 54 29 N 972,7 18 0,2
21.01.2021 07:00:00 5,1 2,2 - - 21 11 59 32 N 972,6 17 0,2
21.01.2021 06:00:00 4,3 1,2 - - 28 15 65 35 N 973,3 20 0,2
21.01.2021 05:00:00 3,7 2,0 - - 28 15 59 32 NNO 973,4 12 0,6
21.01.2021 04:00:00 4,9 1,2 - - 29 16 55 30 NNO 973,7 30 0,2
21.01.2021 03:00:00 4,1 2,3 - - 18 10 - - NNO 973,9 17 0,2
21.01.2021 02:00:00 3,7 2,1 - - 16 9 - - NNO 974,2 27 0,0
21.01.2021 01:00:00 3,7 1,9 - - 13 7 - - NNO 974,5 30 0,0
21.01.2021 00:00:00 3,5 2,1 - - 16 9 - - NNO 974,9 30 0,0
20.01.2021 23:00:00 2,5 1,7 - - 9 5 - - NO 975,6 45 0,0
20.01.2021 22:00:00 2,3 1,6 - - 11 6 - - NO 976,1 13 0,8
20.01.2021 21:00:00 2,0 1,4 - - 13 7 - - NNO 976,4 16 0,4
20.01.2021 20:00:00 2,0 1,5 - - 13 7 - - NO 976,6 9 0,6
20.01.2021 19:00:00 2,5 1,9 - - 4 2 - - NNO 976,8 6 0,6
20.01.2021 18:00:00 1,5 0,9 - - 0 0 - - N 977,7 1,9 1,4
20.01.2021 17:00:00 1,5 0,8 - - 8 4 - - ONO 978,9 2,6 0,6
20.01.2021 16:00:00 1,8 0,8 - - 4 2 - - NO 979,6 45 0,2
20.01.2021 15:00:00 2,5 0,9 - - 2 1 - - WZW 980,1 13 0,0
20.01.2021 14:00:00 1,7 -0,2 - - 2 1 - - Z 980,5 50 0,0
20.01.2021 13:00:00 2,3 0,1 - - 4 2 - - W 981,2 35 0,2
20.01.2021 12:00:00 1,6 -0,3 - - 4 2 - - ZO 981,9 40 0,0
20.01.2021 11:00:00 1,4 0,6 - - 2 1 - - ZZO 982,4 50 0,0
20.01.2021 10:00:00 -1,8 -2,3 - - 2 1 - - O 982,9 50 0,0
20.01.2021 09:00:00 -0,9 -1,4 3,7 5,2 0 0 - - N 983,0 45 0,0
20.01.2021 08:00:00 -1,2 -1,7 - - 0 0 - - N 983,1 50 0,0
20.01.2021 07:00:00 -2,5 -3,1 - - 0 0 - - N 983,2 50 0,0
20.01.2021 06:00:00 -1,7 -2,3 - - 0 0 - - N 983,6 50 0,0
20.01.2021 05:00:00 -1,6 -2,3 - - 4 2 - - O 984,0 50 0,0
20.01.2021 04:00:00 -1,6 -2,2 - - 4 2 - - ONO 984,3 50 0,0
20.01.2021 03:00:00 -1,4 -2,0 - - 4 2 - - O 984,6 50 0,0
20.01.2021 02:00:00 -0,6 -1,2 - - 2 1 - - OZO 985,3 45 0,0
20.01.2021 01:00:00 -0,7 -1,5 - - 5 3 - - O 985,8 50 0,0
20.01.2021 00:00:00 -0,1 -1,1 - - 4 2 - - ZO 986,3 50 0,0
19.01.2021 23:00:00 0,8 0,1 - - 4 2 - - ONO 986,8 50 0,0
19.01.2021 22:00:00 1,5 0,6 - - 2 1 - - ONO 987,4 30 0,0
19.01.2021 21:00:00 2,3 1,3 - - 0 0 - - N 988,1 50 0,0
19.01.2021 20:00:00 3,1 2,2 - - 2 1 - - ZZW 988,6 50 0,0
19.01.2021 19:00:00 2,7 1,8 - - 4 2 - - ZO 989,1 50 0,0
19.01.2021 18:00:00 3,8 2,6 - - 8 4 - - ZO 989,6 16 0,4
19.01.2021 17:00:00 4,1 2,7 - - 9 5 - - ZZO 990,3 10 0,8
19.01.2021 16:00:00 4,5 2,8 - - 11 6 - - Z 990,8 50 0,0
19.01.2021 15:00:00 5,4 2,9 - - 21 11 - - Z 991,4 40 0,0
19.01.2021 14:00:00 6,0 3,7 - - 24 13 - - Z 992,2 35 0,0
19.01.2021 13:00:00 6,2 3,8 - - 16 9 - - ZZW 992,9 30 0,2
19.01.2021 12:00:00 5,5 3,7 - - 16 9 - - ZW 993,8 30 0,0
19.01.2021 11:00:00 4,9 3,4 - - 11 6 - - ZW 994,3 30 1,0
19.01.2021 10:00:00 4,9 3,6 - - 16 9 - - ZW 994,7 45 1,0
19.01.2021 09:00:00 5,0 3,6 4,0 5,2 11 6 - - ZW 995,0 35 0,2
19.01.2021 08:00:00 5,1 3,6 - - 22 12 - - ZW 995,3 30 1,4
19.01.2021 07:00:00 4,9 3,2 - - 26 14 - - ZW 995,8 8 0,2
19.01.2021 06:00:00 4,8 3,3 - - 13 7 - - WZW 996,4 15 0,4
19.01.2021 05:00:00 4,6 2,8 - - 15 8 - - WZW 996,8 27 1,0
19.01.2021 04:00:00 4,5 2,4 - - 15 8 - - ZW 997,3 10 0,0
19.01.2021 03:00:00 4,7 2,9 - - 16 9 - - ZW 998,0 35 0,2
19.01.2021 02:00:00 4,6 2,5 - - 21 11 - - ZW 998,5 29 0,0
19.01.2021 01:00:00 4,4 2,5 - - 15 8 - - ZW 999,3 30 1,0
19.01.2021 00:00:00 4,8 2,8 - - 16 9 - - ZW 1000,0 29 0,0
18.01.2021 23:00:00 4,1 2,1 - - 15 8 - - ZZW 1000,8 30 0,0
18.01.2021 22:00:00 4,7 2,0 - - 13 7 - - ZW 1001,3 27 0,0
18.01.2021 21:00:00 4,1 1,3 - - 11 6 - - WZW 1001,9 27 0,0
18.01.2021 20:00:00 4,7 2,4 - - 13 7 - - W 1002,3 21 0,0
18.01.2021 19:00:00 4,4 2,6 - - 15 8 - - W 1002,5 30 0,4
18.01.2021 18:00:00 4,6 3,2 - - 18 10 48 26 W 1002,8 28 1,8
18.01.2021 17:00:00 5,3 3,7 - - 22 12 - - W 1003,0 29 0,4
18.01.2021 16:00:00 5,0 3,3 - - 34 18 50 27 W 1003,5 12 1,2
18.01.2021 15:00:00 5,3 3,6 - - 28 15 67 36 W 1004,0 17 0,6
18.01.2021 14:00:00 6,4 3,2 - - 29 16 54 29 WZW 1004,7 20 0,2
18.01.2021 13:00:00 6,2 3,6 - - 28 15 52 28 WZW 1005,6 17 0,2
18.01.2021 12:00:00 5,1 3,3 - - 22 12 65 35 W 1006,8 15 1,4
18.01.2021 11:00:00 5,0 3,2 - - 26 14 57 31 WZW 1007,8 21 0,4
18.01.2021 10:00:00 5,7 2,8 - - 22 12 50 27 WZW 1008,0 24 0,0
18.01.2021 09:00:00 6,5 1,3 4,2 5,2 26 14 - - WZW 1008,2 23 0,0
18.01.2021 08:00:00 4,8 3,2 - - 15 8 55 30 W 1008,9 19 1,6
18.01.2021 07:00:00 5,4 3,5 - - 21 11 - - ZW 1008,8 21 0,0
18.01.2021 06:00:00 4,2 2,3 - - 26 14 - - WZW 1009,1 22 0,6
18.01.2021 05:00:00 5,5 1,9 - - 22 12 - - WZW 1009,4 25 0,0
18.01.2021 04:00:00 5,2 1,7 - - 24 13 - - W 1009,7 18 0,0
18.01.2021 03:00:00 5,3 0,5 - - 24 13 46 25 W 1010,2 21 0,0
18.01.2021 02:00:00 6,0 1,8 - - 34 18 50 27 W 1010,1 19 0,0
18.01.2021 01:00:00 5,4 2,3 - - 26 14 48 26 W 1010,4 13 0,0
18.01.2021 00:00:00 5,0 3,0 - - 31 17 81 44 W 1010,5 15 0,4
17.01.2021 23:00:00 4,8 1,8 - - 31 17 59 32 W 1010,7 2,2 0,4
17.01.2021 22:00:00 6,8 3,9 - - 34 18 52 28 W 1010,5 15 0,2
17.01.2021 21:00:00 7,5 4,8 - - 28 15 46 25 WZW 1010,8 15 0,0
17.01.2021 20:00:00 6,9 5,2 - - 22 12 - - WZW 1011,2 18 0,2
17.01.2021 19:00:00 6,7 4,6 - - 31 17 55 30 WZW 1011,9 9 0,4
17.01.2021 18:00:00 7,7 5,6 - - 26 14 - - WZW 1012,2 18 0,0
17.01.2021 17:00:00 7,4 5,7 - - 24 13 - - WZW 1012,2 16 1,4
17.01.2021 16:00:00 7,4 5,6 - - 18 10 - - WZW 1012,2 30 0,0
17.01.2021 15:00:00 5,7 4,7 - - 24 13 - - Z 1012,7 15 0,0
17.01.2021 14:00:00 6,2 4,5 - - 31 17 46 25 ZZW 1013,3 15 1,2
17.01.2021 13:00:00 6,5 4,8 - - 28 15 46 25 ZZW 1014,3 10 0,2
17.01.2021 12:00:00 7,3 3,8 - - 21 11 - - ZW 1015,0 24 0,0
17.01.2021 11:00:00 7,1 3,8 - - 24 13 - - ZW 1015,6 15 0,0
17.01.2021 10:00:00 6,4 3,0 - - 18 10 - - WZW 1015,5 17 0,0
17.01.2021 09:00:00 6,0 3,0 4,2 5,0 21 11 - - W 1015,2 15 0,0
17.01.2021 08:00:00 5,9 3,0 - - 15 8 - - WZW 1014,8 19 0,0
17.01.2021 07:00:00 5,8 2,4 - - 22 12 46 25 W 1014,2 27 0,2
17.01.2021 06:00:00 6,1 2,8 - - 16 9 - - W 1013,4 12 0,2
17.01.2021 05:00:00 6,4 1,8 - - 22 12 - - W 1012,7 18 0,0
17.01.2021 04:00:00 6,2 2,7 - - 22 12 57 31 W 1012,0 15 0,0
17.01.2021 03:00:00 6,2 2,6 - - 22 12 50 27 W 1011,3 15 0,2
17.01.2021 02:00:00 7,1 1,6 - - 29 16 46 25 W 1010,6 15 0,0
17.01.2021 01:00:00 6,7 2,7 - - 26 14 - - W 1009,9 14 0,0
17.01.2021 00:00:00 6,6 2,6 - - 26 14 46 25 W 1009,5 16 0,0
16.01.2021 23:00:00 6,0 3,5 - - 22 12 57 31 W 1008,8 15 0,2
16.01.2021 22:00:00 6,7 2,6 - - 34 18 57 31 W 1007,9 15 0,0
16.01.2021 21:00:00 6,1 3,1 - - 29 16 46 25 W 1007,6 12 0,0
16.01.2021 20:00:00 6,1 2,5 - - 37 20 57 31 W 1007,3 4,9 0,2
16.01.2021 19:00:00 6,0 2,9 - - 35 19 59 32 W 1006,8 19 0,0
16.01.2021 18:00:00 6,3 3,9 - - 35 19 63 34 W 1006,1 15 0,6
16.01.2021 17:00:00 6,8 4,2 - - 39 21 67 36 W 1005,4 14 0,2
16.01.2021 16:00:00 7,2 4,6 - - 34 18 67 36 W 1004,7 13 0,4
16.01.2021 15:00:00 7,6 5,6 - - 31 17 59 32 W 1003,5 10 1,4
16.01.2021 14:00:00 8,1 5,2 - - 37 20 61 33 W 1001,8 9 0,2
16.01.2021 13:00:00 8,2 6,5 - - 35 19 67 36 W 1000,6 7 0,4
16.01.2021 12:00:00 8,4 6,8 - - 41 22 70 38 W 999,4 12 0,6
16.01.2021 11:00:00 8,3 7,2 - - 31 17 50 27 WZW 998,9 3,3 0,4
16.01.2021 10:00:00 8,2 6,4 - - 26 14 54 29 ZW 998,3 30 0,6
16.01.2021 09:00:00 8,2 7,2 3,7 5,0 34 18 46 25 ZZW 997,6 7 0,8
16.01.2021 08:00:00 7,9 6,2 - - 24 13 - - Z 997,8 13 0,2
16.01.2021 07:00:00 7,5 5,9 - - 24 13 48 26 Z 998,7 17 0,2
16.01.2021 06:00:00 7,6 5,9 - - 35 19 61 33 Z 999,8 12 0,2
16.01.2021 05:00:00 8,7 5,4 - - 41 22 55 30 Z 999,9 28 0,0
16.01.2021 04:00:00 7,6 5,1 - - 24 13 46 25 Z 1000,6 20 0,6
16.01.2021 03:00:00 7,4 4,6 - - 26 14 - - ZZO 1002,0 29 0,4
16.01.2021 02:00:00 7,2 4,2 - - 26 14 - - ZZO 1003,3 40 0,6
16.01.2021 01:00:00 7,2 4,1 - - 24 13 - - Z 1004,9 21 0,4
16.01.2021 00:00:00 7,0 4,1 - - 16 9 - - ZO 1006,2 50 0,4
15.01.2021 23:00:00 6,2 2,9 - - 28 15 - - ZO 1008,6 24 0,4
15.01.2021 22:00:00 6,1 3,0 - - 29 16 - - ZO 1010,6 17 1,4
15.01.2021 21:00:00 4,3 0,4 - - 8 4 - - O 1013,0 30 0,0
15.01.2021 20:00:00 3,8 0,2 - - 4 2 - - ZO 1014,6 50 0,0
15.01.2021 19:00:00 2,9 0,1 - - 0 0 - - N 1015,8 50 0,0
15.01.2021 18:00:00 3,0 0,6 - - 5 3 - - ZO 1017,6 45 0,0
15.01.2021 17:00:00 2,5 0,0 - - 5 3 - - O 1018,7 45 0,0
15.01.2021 16:00:00 3,2 1,2 - - 5 3 - - ZO 1020,0 45 0,0
15.01.2021 15:00:00 4,4 2,2 - - 5 3 - - OZO 1020,8 45 0,0
15.01.2021 14:00:00 5,5 3,1 - - 11 6 - - ZZO 1021,8 40 0,0
15.01.2021 13:00:00 5,4 3,3 - - 11 6 - - ZZO 1023,2 45 0,0
15.01.2021 12:00:00 5,8 2,7 - - 15 8 - - Z 1024,2 40 0,0

tt = temperatuur
td = dauwpunt
tt -20cm = temperatuur -20cm
tt -100cm = temperatuur -100cm
ff = windsnelheid
fx = windstoten
dd = windrichting
ppp = luchtdruk
vv = zicht
rr = neerslag

Weerstations in de omgeving